User: anonymous   Login
Location: Unspecified
(0.0000°N, 0.0000°E)
Time: 02:50:50
(UTC+00:00)
Language:

DX 1 - Orbit

View from above orbital plane
View from above orbital plane
View from above satellite
View from above satellite

Ground track
Ground track

The orbit data is extracted from the following two-line orbital elements,

1 40071U 14037C   19016.82139553  .00000048  00000-0  13624-4 0  9992
2 40071  98.4025 163.1194 0008538   5.4235 354.7076 14.81225808244629
Epoch (UTC): 16 January 2019 19:42:48
Eccentricity: 0.0008538
inclination: 98.4025°
perigee height: 619 km
apogee height: 631 km
right ascension of ascending node: 163.1194°
argument of perigee: 5.4235°
revolutions per day: 14.81225808
mean anomaly at epoch: 354.7076°
orbit number at epoch: 24462

The dashed part of the orbit path shows where the satellite is in the earth's shadow,  

DLR